[Iaude] MPEC O07: 2022 CR3 [a=1.48,e=0.19,i=20.9,H=21.07]
    mpec at cfa.harvard.edu 
    mpec at cfa.harvard.edu
       
    Tue Jul 16 10:17:32 EDT 2024
    
    
  
M.P.E.C. 2024-O07                                 Issued 2024 July 16, 14:16 UT
     The Minor Planet Electronic Circulars contain information on unusual
         minor planets, routine data on comets and natural satellites,
         and occasional editorial announcements.  They are published
    on behalf of Division F of the International Astronomical Union by the
          Minor Planet Center, Smithsonian Astrophysical Observatory,
                          Cambridge, MA 02138, U.S.A.
			  
             Prepared using the Tamkin Foundation Computer Network
                              MPC at CFA.HARVARD.EDU
            URL https://www.minorplanetcenter.net/    ISSN 1523-6714
                                    2022 CR3                                    
                           Revision to MPEC 2022-C152                           
Additional Observations:
     K22C03R  C2015 09 05.36872521 43 17.460-11 14 36.71         20.85GVEO007F51
     K22C03R  C2015 09 05.37968221 43 16.738-11 14 56.54         21.57GVEO007F51
     K22C03R  C2015 09 05.39088921 43 16.043-11 15 16.09         22.28GVEO007F51
     K22C03R  C2015 09 06.38160921 42 19.853-11 43 21.34         21.86GVEO007F51
     K22C03R  C2015 09 06.39283521 42 19.167-11 43 40.27         22.12GVEO007F51
     K22C03R  C2015 09 06.40403921 42 18.502-11 43 59.27         21.78GVEO007F51
     K22C03R  C2015 09 06.41523121 42 17.814-11 44 18.12         21.91GVEO007F51
     K22C03R  C2015 10 02.28603621 32 17.119-20 33 11.42         22.69GVEO007F51
     K22C03R  C2015 10 02.29741121 32 17.195-20 33 19.90         23.28GVEO007F51
     K22C03R  C2015 10 02.30884021 32 17.283-20 33 28.55         22.66GVEO007F51
     K22C03R  C2015 10 02.32025221 32 17.336-20 33 37.51         22.65GVEO007F51
     K22C03R  C2015 10 03.27030021 32 28.915-20 45 28.29         22.85GVEO007F51
     K22C03R  C2015 10 03.28128121 32 29.032-20 45 35.85         23.32GVEO007F51
     K22C03R  C2015 10 03.29226521 32 29.124-20 45 43.84         22.11GVEO007F51
     K22C03R  C2019 10 08.56709805 01 00.854-10 42 07.58         22.08GVEO007F52
     K22C03R  C2019 10 08.59026405 01 01.618-10 42 37.53         23.58GVEO007F52
     K22C03R  C2019 10 27.56379005 04 40.888-17 44 30.42         23.55GVEO007F52
     K22C03R  C2019 10 27.58586105 04 40.496-17 44 59.67         21.84GVEO007F52
     K22C03R 0C2024 07 07.51833221 38 58.431+15 51 57.91         23.16GVEO007T12
     K22C03R 0C2024 07 07.52985021 38 58.062+15 51 50.74         22.91GVEO007T12
     K22C03R  C2024 07 09.44343221 38 01.812+15 30 28.27         22.45GVEO007F52
     K22C03R  C2024 07 09.45587121 38 01.346+15 30 19.56         23.11GVEO007F52
     K22C03R  C2024 07 09.46837821 38 00.878+15 30 11.07         22.30GVEO007F52
     K22C03R  C2024 07 09.48088421 38 00.429+15 30 02.21         22.51GVEO007F52
     K22C03R 0C2024 07 09.52899721 37 58.614+15 29 28.11         22.55GVEO007T12
Observer details:
F51 Pan-STARRS 1, Haleakala.  Observers J. Herman, T. Lowe, P. Minguez, A.
    Schultz, I. Smith.  Measurers K. Chambers, T. de Boer, J. Fairlamb, H.
    Gao, M. Huber, C.-C. Lin, E. Magnier, Y. Ramanjooloo, R. Wainscoat, R.
    Weryk.  1.8-m Ritchey-Chretien + CCD.
F52 Pan-STARRS 2, Haleakala.  Observers J. Herman, T. Lowe, P. Minguez, A.
    Schultz, I. Smith.  Measurers K. Chambers, T. de Boer, J. Fairlamb, H.
    Gao, M. Huber, C.-C. Lin, E. Magnier, Y. Ramanjooloo, R. Wainscoat, R.
    Weryk.  1.8-m Ritchey-Chretien + CCD.
T12 University of Hawaii 88-inch telescope, Maunakea.  Observer D. J. Tholen.
    2.24-m f/10.1 reflector + 2112 x 2112 pixels STA1600 10k CCD.
First and last observations above in comparison with prediction:
Residuals in seconds of arc, reference and Delta-T
150905 F51 92.0-  2.6-    240709 T12 30.1-  7.5-    E2024-F50   +0.01 days
Orbital elements:
2022 CR3                                                 Earth MOID = 0.2418 AU
Epoch 2024 Mar. 31.0 TT = JDT 2460400.5                 Veres                   
M  34.95130              (2000.0)            P               Q                  
n   0.54504682     Peri.   34.00847     -0.96604593     +0.21896183             
a   1.4842721      Node   157.40999     -0.22984442     -0.97077053             
e   0.1862785      Incl.   20.91882     +0.11801191     -0.09828674             
P   1.81           H   21.07          G   0.15           U   0                  
Residuals in seconds of arc
150905 F51  0.7+  0.9+    220225 G01  0.6-  0.0     220308 G01  0.5-  0.7-
150905 F51  0.2+  0.1-    220225 G01  0.4-  0.0     220308 G01  0.1-  0.1+
150905 F51  0.3+  0.4-    220225 G01  0.4+  0.0     220309 K87  0.7+  0.3+
150906 F51  0.0   0.1+    220226 F52  0.0   0.0     220309 K87  0.5+  0.1+
150906 F51  0.1-  0.1+    220226 F52  0.0   0.1+    220309 703  0.6+  0.0
150906 F51  0.1+  0.0     220226 F52 (0.2-  0.7+)   220309 703  0.1+  0.2-
150906 F51  0.0   0.0     220226 F52  0.1+  0.0     220309 703  0.7+  0.2+
151002 F51  0.1-  0.1+    220226 130  0.1+  0.2+    220309 703  0.5+  0.5-
151002 F51  0.1-  0.3+    220226 130  0.2+  0.1+    220309 G01  0.1-  0.2+
151002 F51  0.1+  0.4+    220227 B72  0.1+  0.1+    220309 G01  1.0+  0.6+
151002 F51  0.2-  0.1+    220227 B72  0.5-  0.1-    220309 G01  1.0+  0.7+
151003 F51  0.1-  0.4-    220227 B72  0.3+  0.1+    220310 G01  0.9-  0.2-
151003 F51  0.1+  0.1+    220227 B72  0.2+  0.2+    220310 H21  0.3+  0.0
151003 F51  0.0   0.2+    220227 703  0.5+  1.1-    220310 H21  0.1+  0.0
191008 F52  0.3-  0.1+    220227 703  0.5-  0.6-    220310 H21  0.0   0.1-
191008 F52  0.0   0.1-    220227 703  1.7+  1.1-    220310 G01  0.5+  0.6+
191027 F52  0.1-  0.2+    220227 A17  0.0   0.3+    220311 G01  0.9+  0.7+
191027 F52  0.1+  0.2+    220227 A17  0.0   0.3+    220313 H21  0.4-  0.2+
220206 W94  1.0+  0.2-    220227 A17  0.1-  0.3+    220313 H21  0.3-  0.0
220206 W94  0.2+  0.2+    220228 K87  0.6+  0.1+    220313 H21  0.2-  0.1-
220206 W94 (1.3+  0.2+)   220228 K87  0.5+  0.0     220313 H21  0.3-  0.0
220206 W95  0.0   0.1-    220228 K87  0.5+  0.5+    220313 H21  0.2-  0.3-
220206 W95  0.1+  0.0     220228 P07  0.1-  0.6+    220313 H21  0.1+  0.1+
220206 W95  0.0   0.1-    220228 P07  0.7+  0.2+    220313 H21  0.2+  0.3+
220207 807  0.1-  0.3-    220228 P07  0.4+  0.4+    220313 703  0.6+  0.1+
220207 807  0.1-  0.1-    220228 P07  0.3+  0.2+    220313 703  0.6-  0.4+
220207 807  0.1-  0.1-    220228 P07  0.1+  0.5-    220313 703  1.0+  0.7+
220207 W95  0.3-  0.1+    220228 P07  0.1-  0.6+    220314 G96  0.0   0.1-
220207 W95  0.0   0.2-    220228 K87  0.1+  0.5-    220314 G96  0.2-  0.1-
220207 W95  0.3-  0.1+    220228 K87  0.7+  0.2-    220314 G96  0.1-  0.2-
220207 L01  0.2+  1.0+    220301 K87  0.2+  0.2-    220314 G96  0.0   0.1-
220207 L01  0.0   0.0     220301 G96  0.0   0.0     220322 I52  0.5+  0.2-
220207 L01  0.5-  0.3+    220301 G96  0.0   0.0     220322 I52  0.0   0.1-
220207 L01  1.2-  1.0+    220301 G96  0.1-  0.1+    220322 I52  0.1+  0.3+
220207 L01  0.8-  0.6+    220301 G96  0.0   0.1+    220322 I52  0.5+  0.1-
220208 204  0.3-  0.0     220302 H45  0.1+  1.2+    220322 A17  0.2-  0.1+
220208 958  0.5+  0.0     220302 H45  0.1-  0.1-    220322 A17  0.4+  0.2-
220208 958  0.1-  0.4+    220302 H45  0.1-  0.7-    220322 A17  0.1-  0.2+
220208 204  0.0   0.4+    220302 H45  0.5+  0.2-    220323 I52  0.1-  0.0
220208 958  1.1-  0.5-    220302 H45  0.4-  0.2-    220323 I52  0.2-  0.1-
220208 807  0.2-  0.1+    220302 T05  0.3-  1.0+    220323 I52  0.1+  0.5-
220208 807  0.2-  0.1+    220302 T05  0.2-  0.3-    220324 I52  0.1-  0.0
220208 807  0.1+  0.0     220302 T05  0.6+  0.3+    220324 I52  0.3-  0.1-
220208 H36  0.2-  0.6-    220302 T05  0.6+  0.1+    220324 I52 (1.3-  1.2-)
220208 W95  0.0   0.5+    220303 K19  0.0   0.5+    220325 G96  0.1-  0.1+
220208 W95  0.8-  0.2-    220303 K19  0.6-  0.4+    220325 G96  0.1+  0.2+
220208 W95  0.2+  0.0     220303 K19  0.1-  0.5+    220325 G96  0.0   0.3+
220208 H36  0.3-  0.7-    220304 K87  0.8+  0.1+    220325 703  0.7+  0.0
220208 H36  0.3-  0.8+    220304 K87  0.7+  0.2-    220325 G96  0.0   0.1+
220210 C95  0.2+  0.3-    220304 T08  0.0   0.4+    220325 703  0.6-  0.4-
220210 C95  0.6+  0.1-    220304 T08  0.4+  0.4+    220325 703  1.1+  0.7+
220210 I52  0.3-  0.3-    220304 T08  0.2-  0.2-    220325 703  0.1-  0.3+
220210 I52  0.5+  0.1-    220304 T08  0.4-  0.8+    220325 I52  0.3+  0.1+
220210 I52  0.5+  0.1+    220304 T08  0.4-  0.5+    220325 I52  0.1-  0.4-
220211 I52  0.2+  0.0     220304 T08  0.1+  0.5+    220407 G96  0.1+  0.3-
220211 I52  0.0   0.0     220304 T08  0.3+  0.9+    220407 G96  0.1-  0.0
220211 I52  1.0+  0.3+    220304 G01 (1.0+  2.6+)   220407 G96  0.2+  0.0
220212 807  0.0   0.0     220304 G01  1.0-  0.6-    220407 G96  0.1-  0.1-
220212 807  0.0   0.1-    220305 K87  0.9+  0.1+    220412 F52  0.0   0.1-
220212 807  0.1-  0.1+    220305 K87  0.4+  0.3-    220412 F52  0.1-  0.1-
220212 I52  0.1+  0.2-    220305 703  0.5+  0.1+    220412 F52  0.1-  0.1-
220212 I52  0.2+  0.0     220305 703  0.4+  0.1+    220412 F52  0.1+  0.0
220212 I52  0.4-  0.2-    220305 703  0.3-  0.3+    220427 H21  0.7+  0.6+
220213 807  0.4-  0.1-    220305 703  0.3+  0.4+    220427 H21  0.1-  0.2+
220213 807  0.3-  0.1-    220305 T08  0.3+  0.0     220427 H21  0.0   0.3+
220214 I52  0.3-  0.2+    220305 T08  0.1+  0.5+    220502 H21  0.0   0.4-
220214 I52  0.1-  0.2-    220305 T08  0.5+  0.3+    220502 H21  0.5-  0.5+
220214 I52  0.0   0.4+    220305 T08  0.2-  0.1+    220502 H21  0.5-  0.9+
220220 807  0.3-  0.6-    220306 F52  0.0   0.1+    220507 G96  0.5-  0.2+
220220 807  0.1-  0.1+    220306 F52  0.0   0.1-    220507 G96  0.2-  0.1+
220220 807  0.4+  0.1-    220306 F52  0.0   0.1-    220507 G96  0.3-  0.5+
220223 807  0.4-  0.5+    220306 F52  0.0   0.1-    220507 G96  0.3+  0.1-
220223 807  0.1+  0.1+    220306 T08  0.6-  0.3+    240707 T12  0.0   0.0
220223 807  0.1+  0.2-    220306 T08  0.7+  0.1+    240707 T12  0.0   0.0
220224 807  0.3-  0.1+    220306 T08  0.0   0.4+    240709 F52  0.0   0.1-
220224 807  0.1-  0.0     220306 T08  1.4-  0.3+    240709 F52  0.1-  0.1-
220224 807  0.2-  0.0     220306 B67  0.3+  0.0     240709 F52  0.2-  0.2+
220225 I52  0.1-  0.3-    220306 B67  0.3-  0.2+    240709 F52  0.0   0.2+
220225 I52  0.0   0.0     220307 K87  0.0   0.2-    240709 T12  0.0   0.0
220225 I52  0.4+  0.2-    220307 K87  0.3+  0.3+
220225 I52  0.0   0.4+    220308 K87  0.1-  0.5-
Ephemeris:
2022 CR3                 a,e,i = 1.48, 0.19, 21                  q = 1.2078
Date    TT    R. A. (2000) Decl.     Delta      r    Elong.  Phase     V
2024 06 16    21 38 16.1 +17 15 34   0.7889  1.4726   108.7    40.8    23.0
...
2024 07 01    21 40 56.5 +16 45 35   0.7155  1.5118   120.6    35.4    22.7
...
2024 07 09    21 38 15.4 +15 35 42   0.6795  1.5321   128.1    31.5    22.5
...
2024 07 15    21 34 23.2 +14 12 55   0.6558  1.5470   134.2    28.1    22.3
2024 07 16    21 33 35.8 +13 56 25   0.6522  1.5495   135.3    27.5    22.3
2024 07 17    21 32 46.1 +13 39 08   0.6487  1.5519   136.4    26.9    22.3
...
2024 07 23    21 27 03.3 +11 38 46   0.6306  1.5664   143.0    23.0    22.1
...
2024 07 31    21 17 50.9 +08 15 25   0.6155  1.5851   152.0    17.5    21.9
...
2024 08 15    20 59 12.4 +00 18 12   0.6231  1.6181   162.6    10.8    21.8
A. U. Tomatic                (C) Copyright 2024 MPC           M.P.E.C. 2024-O07
    
    
More information about the Iaude
mailing list